KOMPSAT-3A
Last updated on Mon Jun 22 2026 00:02:51 GMT+0000 (Coordinated Universal Time)
1 40536U 15014A 26172.49154969 .00021220 00000+0 30505-3 0 9996
2 40536 97.6890 164.1689 0056939 158.9789 201.3823 15.54169749622485
Next 0 passes for location: London (51.5072 / 0.1276)
No passes found over London.